timestamp,wind_dir_avg,wind_spd_avg,wind_spd_max_dir,wind_spd_gust,battery_voltage,lat,long
2022-08-29 00:04:00+00:00,246.0,7.91,248.0,8.69,12.49,47.59359,-54.27349
2022-08-29 00:14:00+00:00,250.0,7.76,247.0,8.48,12.49,47.59359,-54.27349
2022-08-29 00:24:00+00:00,254.0,7.55,253.0,8.14,12.49,47.59359,-54.27349
2022-08-29 00:34:00+00:00,252.0,8.12,245.0,8.8,12.49,47.59359,-54.27349
2022-08-29 00:44:00+00:00,256.0,8.22,251.0,9.16,12.49,47.59359,-54.27349
2022-08-29 00:54:00+00:00,255.0,8.5,250.0,9.79,12.49,47.59359,-54.27349
2022-08-29 01:04:00+00:00,253.0,7.7,250.0,9.34,12.49,47.59359,-54.27349
2022-08-29 01:14:00+00:00,259.0,8.64,261.0,10.06,12.41,47.59359,-54.27349
2022-08-29 01:24:00+00:00,258.0,8.42,256.0,9.54,12.41,47.59359,-54.27349
2022-08-29 01:34:00+00:00,257.0,7.93,266.0,8.47,12.41,47.59359,-54.27349
2022-08-29 01:44:00+00:00,263.0,7.92,265.0,9.01,12.41,47.59359,-54.27349
2022-08-29 01:54:00+00:00,263.0,7.4,263.0,8.45,12.41,47.59359,-54.27349
2022-08-29 02:04:00+00:00,257.0,7.65,259.0,8.6,12.41,47.59359,-54.27349
2022-08-29 02:14:01+00:00,258.0,7.61,260.0,8.27,12.49,47.59359,-54.27349
2022-08-29 02:24:01+00:00,246.0,7.34,241.0,8.45,12.49,47.59359,-54.27349
2022-08-29 02:34:01+00:00,242.0,6.41,234.0,7.2,12.49,47.59359,-54.27349
2022-08-29 02:44:01+00:00,241.0,7.16,245.0,7.86,12.49,47.59359,-54.27349
2022-08-29 02:54:01+00:00,234.0,6.69,236.0,7.6,12.49,47.59359,-54.27349
2022-08-29 03:04:01+00:00,245.0,6.24,250.0,6.84,12.49,47.59359,-54.27349
2022-08-29 03:14:00+00:00,236.0,6.37,239.0,7.62,12.49,47.59359,-54.27349
2022-08-29 03:24:00+00:00,236.0,6.44,234.0,7.61,12.49,47.59359,-54.27349
2022-08-29 03:34:00+00:00,232.0,6.86,238.0,7.79,12.49,47.59359,-54.27349
2022-08-29 03:44:00+00:00,239.0,7.02,248.0,7.87,12.49,47.59359,-54.27349
2022-08-29 03:54:00+00:00,235.0,7.02,235.0,7.78,12.49,47.59359,-54.27349
2022-08-29 04:04:00+00:00,237.0,7.0,237.0,7.9,12.49,47.59359,-54.27349
2022-08-29 04:14:01+00:00,241.0,6.58,238.0,7.63,12.33,47.59359,-54.27349
2022-08-29 04:24:01+00:00,244.0,6.59,240.0,7.51,12.33,47.59359,-54.27349
2022-08-29 04:34:01+00:00,232.0,6.43,235.0,7.08,12.33,47.59359,-54.27349
2022-08-29 04:44:01+00:00,237.0,6.68,238.0,7.44,12.33,47.59359,-54.27349
2022-08-29 04:54:01+00:00,244.0,7.27,242.0,7.88,12.33,47.59359,-54.27349
2022-08-29 05:04:01+00:00,240.0,6.76,243.0,7.44,12.33,47.59359,-54.27349
2022-08-29 05:14:00+00:00,242.0,6.92,240.0,7.93,12.41,47.59359,-54.27349
2022-08-29 05:24:00+00:00,252.0,7.22,251.0,7.63,12.41,47.59359,-54.27349
2022-08-29 05:34:00+00:00,237.0,7.2,239.0,7.93,12.41,47.59359,-54.27349
2022-08-29 05:44:00+00:00,229.0,6.4,228.0,7.38,12.41,47.59359,-54.27349
2022-08-29 05:54:00+00:00,230.0,6.46,232.0,7.41,12.41,47.59359,-54.27349
2022-08-29 06:04:00+00:00,228.0,5.41,229.0,6.75,12.41,47.59359,-54.27349
2022-08-29 06:14:00+00:00,230.0,5.39,216.0,6.87,12.33,47.59359,-54.27349
2022-08-29 06:24:00+00:00,233.0,5.75,237.0,7.57,12.33,47.59359,-54.27349
2022-08-29 06:34:00+00:00,231.0,5.41,236.0,7.36,12.33,47.59359,-54.27349
2022-08-29 06:44:00+00:00,240.0,6.16,247.0,6.99,12.33,47.59359,-54.27349
2022-08-29 06:54:00+00:00,248.0,6.04,253.0,6.74,12.33,47.59359,-54.27349
2022-08-29 07:04:00+00:00,254.0,6.17,258.0,7.07,12.33,47.59359,-54.27349
2022-08-29 07:14:00+00:00,258.0,5.54,257.0,6.21,12.25,47.59359,-54.27349
2022-08-29 07:24:00+00:00,259.0,7.17,259.0,7.82,12.25,47.59359,-54.27349
2022-08-29 07:34:00+00:00,250.0,6.75,250.0,8.0,12.25,47.59359,-54.27349
2022-08-29 07:44:00+00:00,244.0,7.94,246.0,9.76,12.25,47.59359,-54.27349
2022-08-29 07:54:00+00:00,240.0,8.03,238.0,8.93,12.25,47.59359,-54.27349
2022-08-29 08:04:00+00:00,246.0,6.87,246.0,7.87,12.25,47.59359,-54.27349
2022-08-29 08:14:00+00:00,248.0,7.61,245.0,8.32,12.33,47.59359,-54.27349
2022-08-29 08:24:00+00:00,237.0,6.85,239.0,8.25,12.33,47.59359,-54.27349
2022-08-29 08:34:00+00:00,237.0,7.02,242.0,7.96,12.33,47.59359,-54.27349
2022-08-29 08:44:00+00:00,237.0,6.98,241.0,7.88,12.33,47.59359,-54.27349
2022-08-29 08:54:00+00:00,232.0,7.36,235.0,8.39,12.33,47.59359,-54.27349
2022-08-29 09:04:00+00:00,235.0,7.83,232.0,8.59,12.33,47.59359,-54.27349
2022-08-29 09:14:01+00:00,231.0,7.09,235.0,8.14,12.25,47.59359,-54.27349
2022-08-29 09:24:01+00:00,231.0,5.97,232.0,6.99,12.25,47.59359,-54.27349
2022-08-29 09:34:01+00:00,228.0,6.86,231.0,7.7,12.25,47.59359,-54.27349
2022-08-29 09:44:01+00:00,231.0,6.22,221.0,7.25,12.25,47.59359,-54.27349
2022-08-29 09:54:01+00:00,234.0,7.65,232.0,8.92,12.25,47.59359,-54.27349
2022-08-29 10:04:01+00:00,237.0,7.76,236.0,8.69,12.25,47.59359,-54.27349
2022-08-29 10:14:00+00:00,235.0,7.54,235.0,8.35,12.97,47.59359,-54.27349
2022-08-29 10:24:00+00:00,230.0,7.92,231.0,8.96,12.97,47.59359,-54.27349
2022-08-29 10:34:00+00:00,232.0,7.95,226.0,9.47,12.97,47.59359,-54.27349
2022-08-29 10:44:00+00:00,231.0,7.45,229.0,9.07,12.97,47.59359,-54.27349
2022-08-29 10:54:00+00:00,234.0,7.36,240.0,8.41,12.97,47.59359,-54.27349
2022-08-29 11:04:00+00:00,239.0,7.3,241.0,8.27,12.97,47.59359,-54.27349
2022-08-29 11:14:00+00:00,234.0,6.75,238.0,7.91,13.37,47.59359,-54.27349
2022-08-29 11:24:00+00:00,232.0,6.97,232.0,7.84,13.37,47.59359,-54.27349
2022-08-29 11:34:00+00:00,230.0,6.89,236.0,8.61,13.37,47.59359,-54.27349
2022-08-29 11:44:00+00:00,233.0,7.23,233.0,8.12,13.37,47.59359,-54.27349
2022-08-29 11:54:00+00:00,233.0,7.15,229.0,8.4,13.37,47.59359,-54.27349
2022-08-29 12:04:00+00:00,220.0,6.45,224.0,7.48,13.37,47.59359,-54.27349
2022-08-29 12:14:00+00:00,222.0,6.02,228.0,7.58,13.6,47.59359,-54.27349
2022-08-29 12:24:00+00:00,221.0,6.02,221.0,7.4,13.6,47.59359,-54.27349
2022-08-29 12:34:00+00:00,217.0,5.74,214.0,6.79,13.6,47.59359,-54.27349
2022-08-29 12:44:00+00:00,217.0,5.72,221.0,6.44,13.6,47.59359,-54.27349
2022-08-29 12:54:00+00:00,212.0,5.3,209.0,5.98,13.6,47.59359,-54.27349
2022-08-29 13:04:00+00:00,212.0,5.69,218.0,7.08,13.6,47.59359,-54.27349
2022-08-29 13:14:00+00:00,202.0,7.16,201.0,8.11,13.84,47.59359,-54.27349
2022-08-29 13:24:00+00:00,209.0,6.63,210.0,8.01,13.84,47.59359,-54.27349
2022-08-29 13:34:00+00:00,218.0,6.78,216.0,8.47,13.84,47.59359,-54.27349
2022-08-29 13:44:00+00:00,215.0,7.73,216.0,9.0,13.84,47.59359,-54.27349
2022-08-29 13:54:00+00:00,211.0,8.11,213.0,9.08,13.84,47.59359,-54.27349
2022-08-29 14:04:00+00:00,213.0,8.23,209.0,9.1,13.84,47.59359,-54.27349
2022-08-29 14:14:00+00:00,221.0,7.05,216.0,8.52,14.32,47.59359,-54.27349
2022-08-29 14:24:00+00:00,246.0,7.23,243.0,8.59,14.32,47.59359,-54.27349
2022-08-29 14:34:00+00:00,252.0,8.22,254.0,9.25,14.32,47.59359,-54.27349
2022-08-29 14:44:00+00:00,251.0,7.61,247.0,8.51,14.32,47.59359,-54.27349
2022-08-29 14:54:00+00:00,244.0,8.78,254.0,10.98,14.32,47.59359,-54.27349
2022-08-29 15:04:00+00:00,246.0,8.52,243.0,9.8,14.32,47.59359,-54.27349
2022-08-29 15:14:00+00:00,247.0,8.01,244.0,8.66,13.6,47.59359,-54.27349
2022-08-29 15:24:00+00:00,251.0,6.77,251.0,8.07,13.6,47.59359,-54.27349
2022-08-29 15:34:00+00:00,252.0,7.07,253.0,7.98,13.6,47.59359,-54.27349
2022-08-29 15:44:00+00:00,242.0,8.66,239.0,9.91,13.6,47.59359,-54.27349
2022-08-29 15:54:00+00:00,249.0,7.33,250.0,8.66,13.6,47.59359,-54.27349
2022-08-29 16:04:00+00:00,242.0,5.87,247.0,7.67,13.6,47.59359,-54.27349
2022-08-29 16:14:01+00:00,256.0,7.89,256.0,8.88,13.76,47.59359,-54.27349
2022-08-29 16:24:01+00:00,234.0,6.02,236.0,6.77,13.76,47.59359,-54.27349
2022-08-29 16:34:01+00:00,218.0,7.52,216.0,8.79,13.76,47.59359,-54.27349
2022-08-29 16:44:01+00:00,226.0,8.2,227.0,9.57,13.76,47.59359,-54.27349
2022-08-29 16:54:01+00:00,213.0,9.5,220.0,11.04,13.76,47.59359,-54.27349
2022-08-29 17:04:01+00:00,213.0,9.28,216.0,10.18,13.76,47.59359,-54.27349
2022-08-29 17:14:00+00:00,207.0,10.03,207.0,11.12,14.24,47.59359,-54.27349
2022-08-29 17:24:00+00:00,213.0,9.96,212.0,11.38,14.24,47.59359,-54.27349
2022-08-29 17:34:00+00:00,213.0,11.19,214.0,12.51,14.24,47.59359,-54.27349
2022-08-29 17:44:00+00:00,212.0,10.76,213.0,12.09,14.24,47.59359,-54.27349
2022-08-29 17:54:00+00:00,211.0,11.5,217.0,12.91,14.24,47.59359,-54.27349
2022-08-29 18:04:00+00:00,210.0,10.41,207.0,11.61,14.24,47.59359,-54.27349
2022-08-29 18:14:00+00:00,211.0,10.92,214.0,12.5,14.32,47.59359,-54.27349
2022-08-29 18:24:00+00:00,211.0,10.53,208.0,12.21,14.32,47.59359,-54.27349
2022-08-29 18:34:00+00:00,207.0,10.85,207.0,12.47,14.32,47.59359,-54.27349
2022-08-29 18:44:00+00:00,209.0,10.05,207.0,11.24,14.32,47.59359,-54.27349
2022-08-29 18:54:00+00:00,210.0,9.59,210.0,11.31,14.32,47.59359,-54.27349
2022-08-29 19:04:00+00:00,209.0,10.65,209.0,11.85,14.32,47.59359,-54.27349
2022-08-29 19:14:01+00:00,208.0,9.99,209.0,11.39,13.84,47.59359,-54.27349
2022-08-29 19:24:01+00:00,215.0,9.34,216.0,10.61,13.84,47.59359,-54.27349
2022-08-29 19:34:01+00:00,217.0,8.7,221.0,9.92,13.84,47.59359,-54.27349
2022-08-29 19:44:01+00:00,218.0,8.65,220.0,9.43,13.84,47.59359,-54.27349
2022-08-29 19:54:01+00:00,216.0,9.18,212.0,10.45,13.84,47.59359,-54.27349
2022-08-29 20:04:01+00:00,216.0,9.27,219.0,10.7,13.84,47.59359,-54.27349
2022-08-29 20:14:00+00:00,217.0,8.51,218.0,9.54,13.44,47.59359,-54.27349
2022-08-29 20:24:00+00:00,220.0,7.13,218.0,7.9,13.44,47.59359,-54.27349
2022-08-29 20:34:00+00:00,219.0,7.13,222.0,8.31,13.44,47.59359,-54.27349
2022-08-29 20:44:00+00:00,230.0,6.92,229.0,7.9,13.44,47.59359,-54.27349
2022-08-29 20:54:00+00:00,252.0,7.73,258.0,8.9,13.44,47.59359,-54.27349
2022-08-29 21:04:00+00:00,262.0,9.9,263.0,11.37,13.44,47.59359,-54.27349
2022-08-29 21:14:00+00:00,246.0,8.76,253.0,10.01,13.29,47.59359,-54.27349
2022-08-29 21:24:00+00:00,261.0,10.57,266.0,12.37,13.29,47.59359,-54.27349
2022-08-29 21:34:00+00:00,247.0,8.46,251.0,9.69,13.29,47.59359,-54.27349
2022-08-29 21:44:00+00:00,247.0,7.45,240.0,8.99,13.29,47.59359,-54.27349
2022-08-29 21:54:00+00:00,241.0,7.47,245.0,8.75,13.29,47.59359,-54.27349
2022-08-29 22:04:00+00:00,245.0,7.87,249.0,9.09,13.29,47.59359,-54.27349
2022-08-29 22:14:00+00:00,236.0,6.22,242.0,7.35,12.89,47.59359,-54.27349
2022-08-29 22:24:00+00:00,233.0,6.99,233.0,8.4,12.89,47.59359,-54.27349
2022-08-29 22:34:00+00:00,241.0,7.31,242.0,8.88,12.89,47.59359,-54.27349
2022-08-29 22:44:00+00:00,247.0,7.32,246.0,8.12,12.89,47.59359,-54.27349
2022-08-29 22:54:00+00:00,243.0,7.39,239.0,9.06,12.89,47.59359,-54.27349
2022-08-29 23:04:00+00:00,245.0,6.47,245.0,7.95,12.89,47.59359,-54.27349
2022-08-29 23:14:00+00:00,236.0,6.22,237.0,7.15,12.49,47.59359,-54.27349
2022-08-29 23:24:00+00:00,234.0,6.52,233.0,7.59,12.49,47.59359,-54.27349
2022-08-29 23:34:00+00:00,232.0,6.16,239.0,7.4,12.49,47.59359,-54.27349
2022-08-29 23:44:00+00:00,230.0,7.06,229.0,7.91,12.49,47.59359,-54.27349
2022-08-29 23:54:00+00:00,234.0,7.22,233.0,8.37,12.49,47.59359,-54.27349
